Year,Month,Day,Hour,Minute,Value (Times are PST for temperature in C)
2013,07,24,00,00,24.20
2013,07,24,00,01,24.20
2013,07,24,00,02,24.20
2013,07,24,00,03,24.10
2013,07,24,00,04,24.10
2013,07,24,00,05,24.00
2013,07,24,00,06,23.90
2013,07,24,00,07,23.80
2013,07,24,00,08,23.70
2013,07,24,00,09,23.60
2013,07,24,00,10,23.50
2013,07,24,00,11,23.40
2013,07,24,00,12,23.30
2013,07,24,00,13,23.20
2013,07,24,00,14,23.10
2013,07,24,00,15,23.00
2013,07,24,00,16,23.00
2013,07,24,00,17,22.90
2013,07,24,00,18,22.90
2013,07,24,00,19,22.90
2013,07,24,00,20,22.90
2013,07,24,00,21,23.00
2013,07,24,00,22,23.00
2013,07,24,00,23,22.90
2013,07,24,00,24,22.90
2013,07,24,00,25,22.90
2013,07,24,00,26,22.80
2013,07,24,00,27,22.80
2013,07,24,00,28,22.80
2013,07,24,00,29,22.80
2013,07,24,00,30,22.80
2013,07,24,00,31,22.70
2013,07,24,00,32,22.70
2013,07,24,00,33,22.70
2013,07,24,00,34,22.70
2013,07,24,00,35,22.60
2013,07,24,00,36,22.60
2013,07,24,00,37,22.60
2013,07,24,00,38,22.50
2013,07,24,00,39,22.40
2013,07,24,00,40,22.40
2013,07,24,00,41,22.40
2013,07,24,00,42,22.30
2013,07,24,00,43,22.30
2013,07,24,00,44,22.30
2013,07,24,00,45,22.20
2013,07,24,00,46,22.10
2013,07,24,00,47,22.10
2013,07,24,00,48,22.00
2013,07,24,00,49,21.90
2013,07,24,00,50,21.80
2013,07,24,00,51,21.80
2013,07,24,00,52,21.80
2013,07,24,00,53,21.70
2013,07,24,00,54,21.70
2013,07,24,00,55,21.60
2013,07,24,00,56,21.70
2013,07,24,00,57,21.70
2013,07,24,00,58,21.70
2013,07,24,00,59,21.80
2013,07,24,01,00,21.80
2013,07,24,01,01,21.80
2013,07,24,01,02,21.80
2013,07,24,01,03,21.80
2013,07,24,01,04,21.80
2013,07,24,01,05,21.80
2013,07,24,01,06,21.80
2013,07,24,01,07,21.80
2013,07,24,01,08,21.80
2013,07,24,01,09,21.80
2013,07,24,01,10,21.80
2013,07,24,01,11,21.70
2013,07,24,01,12,21.70
2013,07,24,01,13,21.70
2013,07,24,01,14,21.70
2013,07,24,01,15,21.70
2013,07,24,01,16,21.70
2013,07,24,01,17,21.60
2013,07,24,01,18,21.60
2013,07,24,01,19,21.50
2013,07,24,01,20,21.50
2013,07,24,01,21,21.40
2013,07,24,01,22,21.40
2013,07,24,01,23,21.30
2013,07,24,01,24,21.30
2013,07,24,01,25,21.30
2013,07,24,01,26,21.30
2013,07,24,01,27,21.30
2013,07,24,01,28,21.30
2013,07,24,01,29,21.30
2013,07,24,01,30,21.30
2013,07,24,01,31,21.40
2013,07,24,01,32,21.50
2013,07,24,01,33,21.50
2013,07,24,01,34,21.60
2013,07,24,01,35,21.60
2013,07,24,01,36,21.60
2013,07,24,01,37,21.60
2013,07,24,01,38,21.60
2013,07,24,01,39,21.60
2013,07,24,01,40,21.70
2013,07,24,01,41,21.70
2013,07,24,01,42,21.70
2013,07,24,01,43,21.80
2013,07,24,01,44,21.80
2013,07,24,01,45,21.90
2013,07,24,01,46,22.00
2013,07,24,01,47,22.00
2013,07,24,01,48,22.10
2013,07,24,01,49,22.10
2013,07,24,01,50,22.10
2013,07,24,01,51,22.20
2013,07,24,01,52,22.20
2013,07,24,01,53,22.20
2013,07,24,01,54,22.20
2013,07,24,01,55,22.20
2013,07,24,01,56,22.20
2013,07,24,01,57,22.20
2013,07,24,01,58,22.20
2013,07,24,01,59,22.20
2013,07,24,02,00,22.20
2013,07,24,02,01,22.20
2013,07,24,02,02,22.20
2013,07,24,02,03,22.20
2013,07,24,02,04,22.20
2013,07,24,02,05,22.20
2013,07,24,02,06,22.30
2013,07,24,02,07,22.30
2013,07,24,02,08,22.30
2013,07,24,02,09,22.30
2013,07,24,02,10,22.30
2013,07,24,02,11,22.30
2013,07,24,02,12,22.30
2013,07,24,02,13,22.30
2013,07,24,02,14,22.20
2013,07,24,02,15,22.20
2013,07,24,02,16,22.20
2013,07,24,02,17,22.20
2013,07,24,02,18,22.20
2013,07,24,02,19,22.20
2013,07,24,02,20,22.20
2013,07,24,02,21,22.20
2013,07,24,02,22,22.10
2013,07,24,02,23,22.10
2013,07,24,02,24,22.10
2013,07,24,02,25,22.10
2013,07,24,02,26,22.10
2013,07,24,02,27,22.10
2013,07,24,02,28,22.10
2013,07,24,02,29,22.10
2013,07,24,02,30,22.10
2013,07,24,02,31,22.10
2013,07,24,02,32,22.10
2013,07,24,02,33,22.00
2013,07,24,02,34,22.00
2013,07,24,02,35,22.00
2013,07,24,02,36,22.00
2013,07,24,02,37,22.00
2013,07,24,02,38,22.00
2013,07,24,02,39,22.00
2013,07,24,02,40,22.00
2013,07,24,02,41,22.00
2013,07,24,02,42,22.10
2013,07,24,02,43,22.10
2013,07,24,02,44,22.10
2013,07,24,02,45,22.10
2013,07,24,02,46,22.10
2013,07,24,02,47,22.10
2013,07,24,02,48,22.10
2013,07,24,02,49,22.10
2013,07,24,02,50,22.10
2013,07,24,02,51,22.10
2013,07,24,02,52,22.10
2013,07,24,02,53,22.10
2013,07,24,02,54,22.10
2013,07,24,02,55,22.10
2013,07,24,02,56,22.00
2013,07,24,02,57,22.00
2013,07,24,02,58,22.00
2013,07,24,02,59,22.00
2013,07,24,03,00,22.00
2013,07,24,03,01,21.90
2013,07,24,03,02,21.90
2013,07,24,03,03,21.90
2013,07,24,03,04,21.90
2013,07,24,03,05,21.80
2013,07,24,03,06,21.80
2013,07,24,03,07,21.80
2013,07,24,03,08,21.80
2013,07,24,03,09,21.80
2013,07,24,03,10,21.70
2013,07,24,03,11,21.70
2013,07,24,03,12,21.70
2013,07,24,03,13,21.60
2013,07,24,03,14,21.60
2013,07,24,03,15,21.60
2013,07,24,03,16,21.50
2013,07,24,03,17,21.50
2013,07,24,03,18,21.50
2013,07,24,03,19,21.40
2013,07,24,03,20,21.40
2013,07,24,03,21,21.30
2013,07,24,03,22,21.30
2013,07,24,03,23,21.30
2013,07,24,03,24,21.30
2013,07,24,03,25,21.20
2013,07,24,03,26,21.20
2013,07,24,03,27,21.20
2013,07,24,03,28,21.10
2013,07,24,03,29,21.10
2013,07,24,03,30,21.00
2013,07,24,03,31,21.00
2013,07,24,03,32,20.90
2013,07,24,03,33,20.90
2013,07,24,03,34,20.90
2013,07,24,03,35,20.80
2013,07,24,03,36,20.80
2013,07,24,03,37,20.70
2013,07,24,03,38,20.70
2013,07,24,03,39,20.60
2013,07,24,03,40,20.60
2013,07,24,03,41,20.50
2013,07,24,03,42,20.50
2013,07,24,03,43,20.40
2013,07,24,03,44,20.40
2013,07,24,03,45,20.30
2013,07,24,03,46,20.20
2013,07,24,03,47,20.20
2013,07,24,03,48,20.10
2013,07,24,03,49,20.00
2013,07,24,03,50,20.00
2013,07,24,03,51,20.00
2013,07,24,03,52,20.00
2013,07,24,03,53,20.00
2013,07,24,03,54,20.10
2013,07,24,03,55,20.10
2013,07,24,03,56,20.10
2013,07,24,03,57,20.10
2013,07,24,03,58,20.10
2013,07,24,03,59,20.10
2013,07,24,04,00,20.10
2013,07,24,04,01,20.10
2013,07,24,04,02,20.10
2013,07,24,04,03,20.10
2013,07,24,04,04,20.00
2013,07,24,04,05,20.00
2013,07,24,04,06,20.00
2013,07,24,04,07,20.00
2013,07,24,04,08,20.00
2013,07,24,04,09,20.00
2013,07,24,04,10,20.00
2013,07,24,04,11,20.00
2013,07,24,04,12,20.00
2013,07,24,04,13,20.00
2013,07,24,04,14,20.00
2013,07,24,04,15,20.00
2013,07,24,04,16,20.10
2013,07,24,04,17,20.10
2013,07,24,04,18,20.10
2013,07,24,04,19,20.10
2013,07,24,04,20,20.20
2013,07,24,04,21,20.20
2013,07,24,04,22,20.20
2013,07,24,04,23,20.20
2013,07,24,04,24,20.20
2013,07,24,04,25,20.20
2013,07,24,04,26,20.20
2013,07,24,04,27,20.20
2013,07,24,04,28,20.20
2013,07,24,04,29,20.20
2013,07,24,04,30,20.20
2013,07,24,04,31,20.20
2013,07,24,04,32,20.20
2013,07,24,04,33,20.10
2013,07,24,04,34,20.10
2013,07,24,04,35,20.10
2013,07,24,04,36,20.10
2013,07,24,04,37,20.10
2013,07,24,04,38,20.00
2013,07,24,04,39,20.00
2013,07,24,04,40,20.00
2013,07,24,04,41,20.00
2013,07,24,04,42,19.90
2013,07,24,04,43,19.90
2013,07,24,04,44,19.90
2013,07,24,04,45,19.90
2013,07,24,04,46,19.80
2013,07,24,04,47,19.80
2013,07,24,04,48,19.80
2013,07,24,04,49,19.80
2013,07,24,04,50,19.70
2013,07,24,04,51,19.70
2013,07,24,04,52,19.70
2013,07,24,04,53,19.70
2013,07,24,04,54,19.60
2013,07,24,04,55,19.60
2013,07,24,04,56,19.50
2013,07,24,04,57,19.50
2013,07,24,04,58,19.50
2013,07,24,04,59,19.40
2013,07,24,05,00,19.40
2013,07,24,05,01,19.40
2013,07,24,05,02,19.30
2013,07,24,05,03,19.30
2013,07,24,05,04,19.30
2013,07,24,05,05,19.30
2013,07,24,05,06,19.30
2013,07,24,05,07,19.20
2013,07,24,05,08,19.20
2013,07,24,05,09,19.20
2013,07,24,05,10,19.20
2013,07,24,05,11,19.20
2013,07,24,05,12,19.20
2013,07,24,05,13,19.20
2013,07,24,05,14,19.20
2013,07,24,05,15,19.20
2013,07,24,05,16,19.20
2013,07,24,05,17,19.10
2013,07,24,05,18,19.10
2013,07,24,05,19,19.10
2013,07,24,05,20,19.10
2013,07,24,05,21,19.00
2013,07,24,05,22,19.00
2013,07,24,05,23,19.00
2013,07,24,05,24,18.90
2013,07,24,05,25,18.90
2013,07,24,05,26,18.80
2013,07,24,05,27,18.80
2013,07,24,05,28,18.80
2013,07,24,05,29,18.70
2013,07,24,05,30,18.70
2013,07,24,05,31,18.70
2013,07,24,05,32,18.60
2013,07,24,05,33,18.60
2013,07,24,05,34,18.60
2013,07,24,05,35,18.60
2013,07,24,05,36,18.60
2013,07,24,05,37,18.50
2013,07,24,05,38,18.50
2013,07,24,05,39,18.50
2013,07,24,05,40,18.50
2013,07,24,05,41,18.50
2013,07,24,05,42,18.40
2013,07,24,05,43,18.40
2013,07,24,05,44,18.40
2013,07,24,05,45,18.40
2013,07,24,05,46,18.40
2013,07,24,05,47,18.40
2013,07,24,05,48,18.30
2013,07,24,05,49,18.30
2013,07,24,05,50,18.30
2013,07,24,05,51,18.30
2013,07,24,05,52,18.30
2013,07,24,05,53,18.30
2013,07,24,05,54,18.30
2013,07,24,05,55,18.30
2013,07,24,05,56,18.30
2013,07,24,05,57,18.30
2013,07,24,05,58,18.30
2013,07,24,05,59,18.30
2013,07,24,06,00,18.30
2013,07,24,06,01,18.30
2013,07,24,06,02,18.30
2013,07,24,06,03,18.30
2013,07,24,06,04,18.40
2013,07,24,06,05,18.40
2013,07,24,06,06,18.40
2013,07,24,06,07,18.40
2013,07,24,06,08,18.50
2013,07,24,06,09,18.50
2013,07,24,06,10,18.50
2013,07,24,06,11,18.60
2013,07,24,06,12,18.60
2013,07,24,06,13,18.70
2013,07,24,06,14,18.70
2013,07,24,06,15,18.70
2013,07,24,06,16,18.70
2013,07,24,06,17,18.70
2013,07,24,06,18,18.80
2013,07,24,06,19,18.80
2013,07,24,06,20,18.80
2013,07,24,06,21,18.80
2013,07,24,06,22,18.80
2013,07,24,06,23,18.80
2013,07,24,06,24,18.90
2013,07,24,06,25,18.90
2013,07,24,06,26,18.90
2013,07,24,06,27,18.90
2013,07,24,06,28,18.90
2013,07,24,06,29,18.90
2013,07,24,06,30,19.00
2013,07,24,06,31,19.00
2013,07,24,06,32,19.10
2013,07,24,06,33,19.10
2013,07,24,06,34,19.10
2013,07,24,06,35,19.10
2013,07,24,06,36,19.20
2013,07,24,06,37,19.20
2013,07,24,06,38,19.20
2013,07,24,06,39,19.20
2013,07,24,06,40,19.20
2013,07,24,06,41,19.20
2013,07,24,06,42,19.20
2013,07,24,06,43,19.20
2013,07,24,06,44,19.30
2013,07,24,06,45,19.30
2013,07,24,06,46,19.30
2013,07,24,06,47,19.30
2013,07,24,06,48,19.30
2013,07,24,06,49,19.30
2013,07,24,06,50,19.30
2013,07,24,06,51,19.40
2013,07,24,06,52,19.40
2013,07,24,06,53,19.40
2013,07,24,06,54,19.50
2013,07,24,06,55,19.60
2013,07,24,06,56,19.60
2013,07,24,06,57,19.70
2013,07,24,06,58,19.80
2013,07,24,06,59,19.80
2013,07,24,07,00,19.90
2013,07,24,07,01,19.90
2013,07,24,07,02,20.00
2013,07,24,07,03,20.10
2013,07,24,07,04,20.10
2013,07,24,07,05,20.10
2013,07,24,07,06,20.10
2013,07,24,07,07,20.20
2013,07,24,07,08,20.20
2013,07,24,07,09,20.20
2013,07,24,07,10,20.20
2013,07,24,07,11,20.20
2013,07,24,07,12,20.20
2013,07,24,07,13,20.20
2013,07,24,07,14,20.20
2013,07,24,07,15,20.30
2013,07,24,07,16,20.30
2013,07,24,07,17,20.30
2013,07,24,07,18,20.30
2013,07,24,07,19,20.20
2013,07,24,07,20,20.20
2013,07,24,07,21,20.10
2013,07,24,07,22,20.10
2013,07,24,07,23,20.10
2013,07,24,07,24,20.10
2013,07,24,07,25,20.10
2013,07,24,07,26,20.20
2013,07,24,07,27,20.20
2013,07,24,07,28,20.30
2013,07,24,07,29,20.30
2013,07,24,07,30,20.30
2013,07,24,07,31,20.30
2013,07,24,07,32,20.30
2013,07,24,07,33,20.30
2013,07,24,07,34,20.30
2013,07,24,07,35,20.30
2013,07,24,07,36,20.30
2013,07,24,07,37,20.30
2013,07,24,07,38,20.30
2013,07,24,07,39,20.30
2013,07,24,07,40,20.30
2013,07,24,07,41,20.30
2013,07,24,07,42,20.30
2013,07,24,07,43,20.30
2013,07,24,07,44,20.30
2013,07,24,07,45,20.40
2013,07,24,07,46,20.50
2013,07,24,07,47,20.50
2013,07,24,07,48,20.60
2013,07,24,07,49,20.50
2013,07,24,07,50,20.50
2013,07,24,07,51,20.50
2013,07,24,07,52,20.50
2013,07,24,07,53,20.50
2013,07,24,07,54,20.50
2013,07,24,07,55,20.60
2013,07,24,07,56,20.60
2013,07,24,07,57,20.60
2013,07,24,07,58,20.60
2013,07,24,07,59,20.60
2013,07,24,08,00,20.60
2013,07,24,08,01,20.70
2013,07,24,08,02,20.70
2013,07,24,08,03,20.80
2013,07,24,08,04,20.80
2013,07,24,08,05,20.80
2013,07,24,08,06,20.80
2013,07,24,08,07,20.80
2013,07,24,08,08,20.80
2013,07,24,08,09,20.70
2013,07,24,08,10,20.70
2013,07,24,08,11,20.80
2013,07,24,08,12,20.80
2013,07,24,08,13,20.80
2013,07,24,08,14,20.90
2013,07,24,08,15,20.90
2013,07,24,08,16,21.00
2013,07,24,08,17,21.10
2013,07,24,08,18,21.10
2013,07,24,08,19,21.10
2013,07,24,08,20,21.10
2013,07,24,08,21,21.10
2013,07,24,08,22,21.20
2013,07,24,08,23,21.30
2013,07,24,08,24,21.30
2013,07,24,08,25,21.30
2013,07,24,08,26,21.30
2013,07,24,08,27,21.30
2013,07,24,08,28,21.40
2013,07,24,08,29,21.40
2013,07,24,08,30,21.40
2013,07,24,08,31,21.40
2013,07,24,08,32,21.40
2013,07,24,08,33,21.30
2013,07,24,08,34,21.40
2013,07,24,08,35,21.40
2013,07,24,08,36,21.50
2013,07,24,08,37,21.50
2013,07,24,08,38,21.40
2013,07,24,08,39,21.40
2013,07,24,08,40,21.40
2013,07,24,08,41,21.50
2013,07,24,08,42,21.50
2013,07,24,08,43,21.40
2013,07,24,08,44,21.50
2013,07,24,08,45,21.50
2013,07,24,08,46,21.60
2013,07,24,08,47,21.70
2013,07,24,08,48,21.70
2013,07,24,08,49,21.70
2013,07,24,08,50,21.70
2013,07,24,08,51,21.80
2013,07,24,08,52,21.80
2013,07,24,08,53,21.80
2013,07,24,08,54,21.90
2013,07,24,08,55,22.00
2013,07,24,08,56,22.10
2013,07,24,08,57,22.20
2013,07,24,08,58,22.20
2013,07,24,08,59,22.20
2013,07,24,09,00,22.20
2013,07,24,09,01,22.20
2013,07,24,09,02,22.10
2013,07,24,09,03,22.10
2013,07,24,09,04,22.00
2013,07,24,09,05,21.90
2013,07,24,09,06,21.90
2013,07,24,09,07,21.80
2013,07,24,09,08,21.80
2013,07,24,09,09,21.80
2013,07,24,09,10,21.80
2013,07,24,09,11,21.80
2013,07,24,09,12,21.80
2013,07,24,09,13,21.80
2013,07,24,09,14,21.90
2013,07,24,09,15,21.90
2013,07,24,09,16,22.00
2013,07,24,09,17,22.10
2013,07,24,09,18,22.20
2013,07,24,09,19,22.20
2013,07,24,09,20,22.30
2013,07,24,09,21,22.30
2013,07,24,09,22,22.30
2013,07,24,09,23,22.30
2013,07,24,09,24,22.30
2013,07,24,09,25,22.20
2013,07,24,09,26,22.20
2013,07,24,09,27,22.20
2013,07,24,09,28,22.20
2013,07,24,09,29,22.30
2013,07,24,09,30,22.40
2013,07,24,09,31,22.50
2013,07,24,09,32,22.50
2013,07,24,09,33,22.60
2013,07,24,09,34,22.70
2013,07,24,09,35,22.80
2013,07,24,09,36,22.80
2013,07,24,09,37,22.90
2013,07,24,09,38,23.00
2013,07,24,09,39,23.10
2013,07,24,09,40,23.20
2013,07,24,09,41,23.20
2013,07,24,09,42,23.20
2013,07,24,09,43,23.20
2013,07,24,09,44,23.20
2013,07,24,09,45,23.20
2013,07,24,09,46,23.20
2013,07,24,09,47,23.20
2013,07,24,09,48,23.30
2013,07,24,09,49,23.30
2013,07,24,09,50,23.30
2013,07,24,09,51,23.30
2013,07,24,09,52,23.30
2013,07,24,09,53,23.40
2013,07,24,09,54,23.30
2013,07,24,09,55,23.30
2013,07,24,09,56,23.40
2013,07,24,09,57,23.40
2013,07,24,09,58,23.50
2013,07,24,09,59,23.60
2013,07,24,10,00,23.60
2013,07,24,10,01,23.40
2013,07,24,10,02,23.40
2013,07,24,10,03,23.40
2013,07,24,10,04,23.30
2013,07,24,10,05,23.40
2013,07,24,10,06,23.30
2013,07,24,10,07,23.30
2013,07,24,10,08,23.30
2013,07,24,10,09,23.10
2013,07,24,10,10,23.10
2013,07,24,10,11,23.10
2013,07,24,10,12,23.20
2013,07,24,10,13,23.20
2013,07,24,10,14,23.30
2013,07,24,10,15,23.40
2013,07,24,10,16,23.40
2013,07,24,10,17,23.50
2013,07,24,10,18,23.40
2013,07,24,10,19,23.30
2013,07,24,10,20,23.10
2013,07,24,10,21,23.00
2013,07,24,10,22,23.10
2013,07,24,10,23,23.10
2013,07,24,10,24,23.20
2013,07,24,10,25,23.30
2013,07,24,10,26,23.30
2013,07,24,10,27,23.30
2013,07,24,10,28,23.30
2013,07,24,10,29,23.30
2013,07,24,10,30,23.30
2013,07,24,10,31,23.30
2013,07,24,10,32,23.40
2013,07,24,10,33,23.50
2013,07,24,10,34,23.50
2013,07,24,10,35,23.60
2013,07,24,10,36,23.70
2013,07,24,10,37,23.80
2013,07,24,10,38,23.80
2013,07,24,10,39,23.90
2013,07,24,10,40,24.00
2013,07,24,10,41,24.10
2013,07,24,10,42,24.10
2013,07,24,10,43,24.10
2013,07,24,10,44,24.20
2013,07,24,10,45,24.30
2013,07,24,10,46,24.40
2013,07,24,10,47,24.40
2013,07,24,10,48,24.40
2013,07,24,10,49,24.50
2013,07,24,10,50,24.40
2013,07,24,10,51,24.50
2013,07,24,10,52,24.50
2013,07,24,10,53,24.40
2013,07,24,10,54,24.30
2013,07,24,10,55,24.10
2013,07,24,10,56,24.10
2013,07,24,10,57,24.10
2013,07,24,10,58,24.20
2013,07,24,10,59,24.20
2013,07,24,11,00,24.20
2013,07,24,11,01,24.30
2013,07,24,11,02,24.20
2013,07,24,11,03,24.10
2013,07,24,11,04,24.10
2013,07,24,11,05,24.20
2013,07,24,11,06,24.30
2013,07,24,11,07,24.30
2013,07,24,11,08,24.40
2013,07,24,11,09,24.40
2013,07,24,11,10,24.30
2013,07,24,11,11,24.30
2013,07,24,11,12,24.30
2013,07,24,11,13,24.30
2013,07,24,11,14,24.30
2013,07,24,11,15,24.30
2013,07,24,11,16,24.30
2013,07,24,11,17,24.40
2013,07,24,11,18,24.40
2013,07,24,11,19,24.40
2013,07,24,11,20,24.50
2013,07,24,11,21,24.40
2013,07,24,11,22,24.20
2013,07,24,11,23,24.20
2013,07,24,11,24,24.20
2013,07,24,11,25,24.30
2013,07,24,11,26,24.30
2013,07,24,11,27,24.40
2013,07,24,11,28,24.50
2013,07,24,11,29,24.60
2013,07,24,11,30,24.60
2013,07,24,11,31,24.70
2013,07,24,11,32,24.70
2013,07,24,11,33,24.70
2013,07,24,11,34,24.70
2013,07,24,11,35,24.70
2013,07,24,11,36,24.70
2013,07,24,11,37,24.80
2013,07,24,11,38,24.80
2013,07,24,11,39,24.80
2013,07,24,11,40,24.80
2013,07,24,11,41,24.90
2013,07,24,11,42,24.90
2013,07,24,11,43,24.90
2013,07,24,11,44,24.80
2013,07,24,11,45,24.70
2013,07,24,11,46,24.70
2013,07,24,11,47,24.70
2013,07,24,11,48,24.70
2013,07,24,11,49,24.50
2013,07,24,11,50,24.40
2013,07,24,11,51,24.40
2013,07,24,11,52,24.40
2013,07,24,11,53,24.30
2013,07,24,11,54,24.20
2013,07,24,11,55,24.20
2013,07,24,11,56,24.40
2013,07,24,11,57,24.50
2013,07,24,11,58,24.50
2013,07,24,11,59,24.60
2013,07,24,12,00,24.70
2013,07,24,12,01,24.60
2013,07,24,12,02,24.50
2013,07,24,12,03,24.40
2013,07,24,12,04,24.40
2013,07,24,12,05,24.40
2013,07,24,12,06,24.50
2013,07,24,12,07,24.60
2013,07,24,12,08,24.50
2013,07,24,12,09,24.50
2013,07,24,12,10,24.40
2013,07,24,12,11,24.30
2013,07,24,12,12,24.20
2013,07,24,12,13,24.10
2013,07,24,12,14,24.10
2013,07,24,12,15,24.10
2013,07,24,12,16,24.20
2013,07,24,12,17,24.20
2013,07,24,12,18,24.10
2013,07,24,12,19,24.20
2013,07,24,12,20,24.10
2013,07,24,12,21,24.10
2013,07,24,12,22,24.10
2013,07,24,12,23,24.10
2013,07,24,12,24,24.20
2013,07,24,12,25,24.20
2013,07,24,12,26,24.20
2013,07,24,12,27,24.10
2013,07,24,12,28,23.90
2013,07,24,12,29,24.00
2013,07,24,12,30,24.00
2013,07,24,12,31,24.10
2013,07,24,12,32,24.30
2013,07,24,12,33,24.40
2013,07,24,12,34,24.30
2013,07,24,12,35,24.30
2013,07,24,12,36,24.20
2013,07,24,12,37,24.20
2013,07,24,12,38,24.20
2013,07,24,12,39,24.20
2013,07,24,12,40,24.30
2013,07,24,12,41,24.20
2013,07,24,12,42,24.10
2013,07,24,12,43,24.20
2013,07,24,12,44,24.30
2013,07,24,12,45,24.20
2013,07,24,12,46,24.20
2013,07,24,12,47,24.30
2013,07,24,12,48,24.40
2013,07,24,12,49,24.50
2013,07,24,12,50,24.40
2013,07,24,12,51,24.40
2013,07,24,12,52,24.40
2013,07,24,12,53,24.30
2013,07,24,12,54,24.30
2013,07,24,12,55,24.20
2013,07,24,12,56,24.00
2013,07,24,12,57,23.80
2013,07,24,12,58,23.70
2013,07,24,12,59,23.60
2013,07,24,13,00,23.70
2013,07,24,13,01,23.80
2013,07,24,13,02,23.80
2013,07,24,13,03,23.90
2013,07,24,13,04,24.00
2013,07,24,13,05,24.10
2013,07,24,13,06,24.20
2013,07,24,13,07,24.20
2013,07,24,13,08,24.20
2013,07,24,13,09,24.20
2013,07,24,13,10,24.10
2013,07,24,13,11,24.00
2013,07,24,13,12,23.70
2013,07,24,13,13,23.50
2013,07,24,13,14,23.40
2013,07,24,13,15,23.30
2013,07,24,13,16,23.10
2013,07,24,13,17,23.00
2013,07,24,13,18,23.00
2013,07,24,13,19,23.10
2013,07,24,13,20,23.20
2013,07,24,13,21,23.30
2013,07,24,13,22,23.30
2013,07,24,13,23,23.30
2013,07,24,13,24,23.40
2013,07,24,13,25,23.30
2013,07,24,13,26,23.20
2013,07,24,13,27,23.10
2013,07,24,13,28,23.10
2013,07,24,13,29,23.20
2013,07,24,13,30,23.10
2013,07,24,13,31,23.20
2013,07,24,13,32,23.20
2013,07,24,13,33,23.30
2013,07,24,13,34,23.30
2013,07,24,13,35,23.40
2013,07,24,13,36,23.30
2013,07,24,13,37,23.30
2013,07,24,13,38,23.20
2013,07,24,13,39,23.20
2013,07,24,13,40,23.30
2013,07,24,13,41,23.30
2013,07,24,13,42,23.40
2013,07,24,13,43,23.50
2013,07,24,13,44,23.60
2013,07,24,13,45,23.60
2013,07,24,13,46,23.60
2013,07,24,13,47,23.40
2013,07,24,13,48,23.40
2013,07,24,13,49,23.30
2013,07,24,13,50,23.20
2013,07,24,13,51,23.20
2013,07,24,13,52,23.20
2013,07,24,13,53,23.30
2013,07,24,13,54,23.30
2013,07,24,13,55,23.30
2013,07,24,13,56,23.40
2013,07,24,13,57,23.50
2013,07,24,13,58,23.70
2013,07,24,13,59,23.70
2013,07,24,14,00,23.70
2013,07,24,14,01,23.70
2013,07,24,14,02,23.70
2013,07,24,14,03,23.70
2013,07,24,14,04,23.60
2013,07,24,14,05,23.50
2013,07,24,14,06,23.40
2013,07,24,14,07,23.40
2013,07,24,14,08,23.40
2013,07,24,14,09,23.50
2013,07,24,14,10,23.60
2013,07,24,14,11,23.50
2013,07,24,14,12,23.50
2013,07,24,14,13,23.40
2013,07,24,14,14,23.40
2013,07,24,14,15,23.30
2013,07,24,14,16,23.30
2013,07,24,14,17,23.30
2013,07,24,14,18,23.30
2013,07,24,14,19,23.30
2013,07,24,14,20,23.30
2013,07,24,14,21,23.30
2013,07,24,14,22,23.30
2013,07,24,14,23,23.40
2013,07,24,14,24,23.40
2013,07,24,14,25,23.50
2013,07,24,14,26,23.50
2013,07,24,14,27,23.60
2013,07,24,14,28,23.70
2013,07,24,14,29,23.70
2013,07,24,14,30,23.80
2013,07,24,14,31,23.80
2013,07,24,14,32,23.80
2013,07,24,14,33,23.90
2013,07,24,14,34,24.00
2013,07,24,14,35,23.90
2013,07,24,14,36,23.90
2013,07,24,14,37,23.90
2013,07,24,14,38,23.80
2013,07,24,14,39,23.80
2013,07,24,14,40,23.80
2013,07,24,14,41,23.80
2013,07,24,14,42,23.90
2013,07,24,14,43,23.90
2013,07,24,14,44,24.00
2013,07,24,14,45,24.10
2013,07,24,14,46,24.20
2013,07,24,14,47,24.20
2013,07,24,14,48,24.30
2013,07,24,14,49,24.30
2013,07,24,14,50,24.30
2013,07,24,14,51,24.30
2013,07,24,14,52,24.20
2013,07,24,14,53,24.30
2013,07,24,14,54,24.30
2013,07,24,14,55,24.30
2013,07,24,14,56,24.30
2013,07,24,14,57,24.30
2013,07,24,14,58,24.30
2013,07,24,14,59,24.30
2013,07,24,15,00,24.30
2013,07,24,15,01,24.30
2013,07,24,15,02,24.20
2013,07,24,15,03,24.10
2013,07,24,15,04,24.00
2013,07,24,15,05,24.00
2013,07,24,15,06,24.00
2013,07,24,15,07,24.10
2013,07,24,15,08,24.20
2013,07,24,15,09,24.10
2013,07,24,15,10,24.10
2013,07,24,15,11,24.00
2013,07,24,15,12,24.00
2013,07,24,15,13,23.90
2013,07,24,15,14,24.00
2013,07,24,15,15,24.20
2013,07,24,15,16,24.30
2013,07,24,15,17,24.50
2013,07,24,15,18,24.50
2013,07,24,15,19,24.50
2013,07,24,15,20,24.50
2013,07,24,15,21,24.60
2013,07,24,15,22,24.70
2013,07,24,15,23,24.80
2013,07,24,15,24,24.90
2013,07,24,15,25,24.90
2013,07,24,15,26,24.90
2013,07,24,15,27,24.80
2013,07,24,15,28,24.70
2013,07,24,15,29,24.60
2013,07,24,15,30,24.60
2013,07,24,15,31,24.60
2013,07,24,15,32,24.60
2013,07,24,15,33,24.60
2013,07,24,15,34,24.70
2013,07,24,15,35,24.70
2013,07,24,15,36,24.70
2013,07,24,15,37,24.80
2013,07,24,15,38,24.80
2013,07,24,15,39,24.70
2013,07,24,15,40,24.70
2013,07,24,15,41,24.70
2013,07,24,15,42,24.80
2013,07,24,15,43,24.80
2013,07,24,15,44,24.80
2013,07,24,15,45,24.80
2013,07,24,15,46,24.90
2013,07,24,15,47,24.90
2013,07,24,15,48,24.90
2013,07,24,15,49,24.90
2013,07,24,15,50,24.90
2013,07,24,15,51,24.90
2013,07,24,15,52,25.00
2013,07,24,15,53,25.10
2013,07,24,15,54,25.10
2013,07,24,15,55,25.00
2013,07,24,15,56,25.00
2013,07,24,15,57,24.90
2013,07,24,15,58,24.90
2013,07,24,15,59,24.80
2013,07,24,16,00,24.70
2013,07,24,16,01,24.70
2013,07,24,16,02,24.70
2013,07,24,16,03,24.70
2013,07,24,16,04,24.70
2013,07,24,16,05,24.70
2013,07,24,16,06,24.70
2013,07,24,16,07,24.70
2013,07,24,16,08,24.60
2013,07,24,16,09,24.60
2013,07,24,16,10,24.60
2013,07,24,16,11,24.60
2013,07,24,16,12,24.60
2013,07,24,16,13,24.60
2013,07,24,16,14,24.60
2013,07,24,16,15,24.60
2013,07,24,16,16,24.60
2013,07,24,16,17,24.60
2013,07,24,16,18,24.60
2013,07,24,16,19,24.50
2013,07,24,16,20,24.50
2013,07,24,16,21,24.50
2013,07,24,16,22,24.40
2013,07,24,16,23,24.50
2013,07,24,16,24,24.50
2013,07,24,16,25,24.50
2013,07,24,16,26,24.50
2013,07,24,16,27,24.60
2013,07,24,16,28,24.60
2013,07,24,16,29,24.50
2013,07,24,16,30,24.50
2013,07,24,16,31,24.40
2013,07,24,16,32,24.30
2013,07,24,16,33,24.20
2013,07,24,16,34,24.10
2013,07,24,16,35,24.10
2013,07,24,16,36,24.10
2013,07,24,16,37,24.10
2013,07,24,16,38,24.10
2013,07,24,16,39,24.10
2013,07,24,16,40,24.20
2013,07,24,16,41,24.20
2013,07,24,16,42,24.20
2013,07,24,16,43,24.20
2013,07,24,16,44,24.20
2013,07,24,16,45,24.20
2013,07,24,16,46,24.30
2013,07,24,16,47,24.30
2013,07,24,16,48,24.30
2013,07,24,16,49,24.20
2013,07,24,16,50,24.10
2013,07,24,16,51,24.10
2013,07,24,16,52,24.10
2013,07,24,16,53,24.10
2013,07,24,16,54,24.10
2013,07,24,16,55,24.10
2013,07,24,16,56,24.10
2013,07,24,16,57,24.10
2013,07,24,16,58,24.20
2013,07,24,16,59,24.30
2013,07,24,17,00,24.40
2013,07,24,17,01,24.50
2013,07,24,17,02,24.60
2013,07,24,17,03,24.70
2013,07,24,17,04,24.70
2013,07,24,17,05,24.80
2013,07,24,17,06,24.70
2013,07,24,17,07,24.70
2013,07,24,17,08,24.70
2013,07,24,17,09,24.70
2013,07,24,17,10,24.70
2013,07,24,17,11,24.80
2013,07,24,17,12,24.80
2013,07,24,17,13,24.80
2013,07,24,17,14,24.90
2013,07,24,17,15,24.90
2013,07,24,17,16,24.90
2013,07,24,17,17,25.00
2013,07,24,17,18,25.10
2013,07,24,17,19,25.20